Location: College Park
(38.9810°N, 76.9370°W)
Time: 23:02:36
(UTC-05:00)

Tiangong 2 - Pass Details

Date: 12 November 2017
Orbit: 386 x 392 km, 42.8° (Epoch: 24 November)

Event Time Altitude Azimuth Distance (km) Brightness Sun altitude
Rises 18:15:15 0° 286° (WNW) 2,273 6.2 -15.6°
Reaches altitude 10° 18:17:26 10° 276° (W) 1,414 5.1 -16.0°
Maximum altitude 18:20:21 33° 210° (SSW) 671 2.6 -16.6°
Enters shadow 18:22:21 17° 153° (SSE) 1,083 3.1 -16.9°
